This demonstration page uses our WeatherBlox Daily Observations layout. Learn more.

Left ArrowRight Arrow

38.80484, -77.04692

Hourly Observations for August 5, 2022

Temp ( °F °C ) Dew Point ( °F °C ) Humidity (%) Winds ( mph kmh ) Pressure ( in mb ) Visibility ( mi km ) Precip ( " mm )
12:00 am 00:00 Cloudy with Thunderstorms 74 23.3 69 20.6 85 85 E 7 11 30.13 1020 10 16 0.00 0.00
12:38 am 00:38 Cloudy 74 23.3 69 20.6 85 85 S 3 6 30.14 1021 10 16 0.01 0.25
12:52 am 00:52 Mostly Cloudy 74 23.3 69 20.6 85 85 SSW 5 7 30.15 1021 10 16 0.01 0.25
1:52 am 01:52 Mostly Cloudy 74 23.3 70 21.1 88 88 SSW 5 7 30.13 1020 10 16 0.00 0.00
2:52 am 02:52 Partly Cloudy 74 23.3 70 21.1 88 88 SW 8 13 30.12 1020 10 16 0.00 0.00
3:52 am 03:52 Partly Cloudy 74 23.3 70 21.1 88 88 WNW 6 9 30.14 1021 10 16 0.00 0.00
4:52 am 04:52 Partly Cloudy 74 23.3 70 21.1 88 88 Calm 30.13 1020 10 16 0.00 0.00
5:52 am 05:52 Mostly Cloudy 74 23.3 70 21.1 88 88 Calm 30.12 1020 10 16 0.00 0.00
6:52 am 06:52 Mostly Cloudy 75 23.9 70 21.1 84 84 WSW 3 6 30.14 1021 10 16 0.00 0.00
7:52 am 07:52 Mostly Cloudy 76 24.4 71 21.7 85 85 Calm 30.16 1022 8 13 0.00 0.00
8:52 am 08:52 Mostly Cloudy 79 26.1 72 22.2 79 79 Calm 30.16 1022 10 16 0.00 0.00
9:52 am 09:52 Mostly Cloudy 80 26.7 72 22.2 76 76 SE 5 7 30.17 1022 10 16 0.00 0.00
10:52 am 10:52 Mostly Cloudy 83 28.3 73 22.8 72 72 E 3 6 30.17 1022 10 16 0.00 0.00
11:52 am 11:52 Mostly Cloudy 86 30 72 22.2 63 63 ENE 3 6 30.18 1022 10 16 0.00 0.00
12:52 pm 12:52 Mostly Cloudy 88 31.1 74 23.3 63 63 E 3 6 30.17 1022 10 16 0.00 0.00
1:52 pm 13:52 Mostly Cloudy 91 32.8 71 21.7 52 52 Calm 30.15 1021 10 16 0.00 0.00
2:52 pm 14:52 Mostly Cloudy 91 32.8 71 21.7 52 52 Calm 30.12 1020 10 16 0.00 0.00
3:48 pm 15:48 Mostly Cloudy with Thunderstorms 91 33 73 23 56 56 E 6 9 30.11 1020 10 16 0.00 0.00
3:52 pm 15:52 Mostly Cloudy with Thunderstorms 91 32.8 74 23.3 57 57 VRB 6 9 30.11 1020 10 16 0.00 0.00
4:05 pm 16:05 Mostly Cloudy with Nearby Thunderstorms 86 30 72 22.2 63 63 SE 17 28 30.12 1020 10 16 0.00 0.00
4:09 pm 16:09 Mostly Cloudy with Thunderstorms 85 29.4 70 21.1 61 61 SE 17 28 30.12 1020 10 16 0.00 0.00
4:17 pm 16:17 Mostly Cloudy with Thunderstorms 85 29.4 70 21.1 61 61 S 20 31 30.13 1020 10 16 0.00 0.00
4:52 pm 16:52 Cloudy with Thunderstorms 82 27.8 66 18.9 58 58 SE 9 15 30.15 1021 10 16 0.00 0.00
5:39 pm 17:39 Partly Cloudy with Nearby Thunderstorms 79 26.1 69 20.6 72 72 NNW 13 20 30.16 1021 10 16 0.00 0.00
5:52 pm 17:52 Mostly Cloudy with Nearby Thunderstorms 78 25.6 71 21.7 79 79 NNW 14 22 30.14 1021 10 16 0.00 0.00
6:05 pm 18:05 Mostly Cloudy with Light Rain 77 25 71 21.7 82 82 N 7 11 30.14 1021 10 16 0.00 0.00
6:52 pm 18:52 Mostly Cloudy with Light Rain 79 26.1 72 22.2 79 79 S 3 6 30.17 1022 10 16 0.00 0.00
7:52 pm 19:52 Mostly Cloudy 79 26.1 70 21.1 74 74 SSW 8 13 30.18 1022 10 16 0.00 0.00
8:38 pm 20:38 Mostly Cloudy with Nearby Thunderstorms 77 25 71 21.7 82 82 SSE 13 20 30.21 1023 10 16 0.00 0.00
8:52 pm 20:52 Mostly Cloudy 76 24.4 70 21.1 82 82 SSE 12 19 30.23 1024 10 16 0.00 0.00
9:52 pm 21:52 Mostly Cloudy 75 23.9 70 21.1 84 84 SSE 7 11 30.22 1024 10 16 0.00 0.00
10:26 pm 22:26 Mostly Cloudy 76 24.4 70 21.1 82 82 SSW 6 9 30.22 1023 10 16 0.00 0.00
10:52 pm 22:52 Mostly Cloudy 76 24.4 70 21.1 82 82 WSW 6 9 30.20 1023 10 16 0.00 0.00
10:58 pm 22:58 Cloudy 76 24.4 70 21.1 82 82 SW 8 13 30.20 1023 10 16 0.00 0.00
11:52 pm 23:52 Cloudy 76 24.4 69 20.6 79 79 W 9 15 30.18 1022 10 16 0.00 0.00

Powered by AerisWeather